Snowfall_Accumulation
0.4 0.1 0.0 0.1 0.0 0.0 0.0 0.2 0.8 1.1 1.7 1.9 1.8 2.1 2.0 1.9 1.5 1.0 1.3 1.3 1.7 2.5 2.9 3.8 3.1 3.2 3.9 3.9 3.1 3.2 4.8 6.4 11.3 1.6 0.7 0.5 0.2 0.3 0.0 0.4 0.0 0.0 0.0
1.6 1.2 1.0 1.0 0.7 0.7 0.6 0.6 1.0 1.6 2.0 2.8 2.9 2.3 2.1 2.2 2.4 1.6 1.1 0.6 0.9 1.3 2.0 3.1 3.0 2.4 4.2 4.4 4.7 5.3 5.8 4.5 10.0 8.6 4.1 4.1 2.9 0.9 0.5 1.0 2.2 0.1 0.2
2.7 2.5 1.9 1.5 1.1 1.1 1.9 2.6 1.1 1.7 1.7 2.4 2.1 2.1 2.5 2.2 2.0 1.4 0.8 0.9 1.6 2.2 3.4 4.2 4.4 3.1 4.4 6.4 7.4 5.7 6.6 5.0 6.7 7.9 7.5 4.7 3.9 2.2 1.1 0.0 2.8 2.8 0.2
3.6 3.4 3.7 3.7 2.4 2.1 1.9 2.2 2.3 3.7 3.9 4.3 3.9 2.9 3.1 2.4 2.4 1.5 0.8 0.9 0.7 1.7 2.0 2.8 3.2 5.0 8.4 7.2 8.1 8.4 9.2 9.5 10.3 12.7 16.0 16.0 11.5 10.3 3.0 5.5 2.8 3.9 3.5
3.9 2.8 2.3 2.6 4.4 2.8 2.6 3.3 4.2 3.7 3.7 4.0 3.5 3.6 5.3 5.1 5.1 5.7 3.7 2.5 2.0 1.0 1.5 0.5 1.8 2.8 3.6 4.8 9.8 8.2 7.8 9.1 11.5 15.4 16.8 15.9 16.3 14.0 14.0 8.5 9.0 8.0 5.9
0.8 1.0 1.4 0.7 1.6 2.5 2.2 2.5 2.2 1.6 3.2 4.6 7.1 5.8 10.0 8.3 6.6 5.8 3.3 3.4 2.8 3.1 3.1 2.2 1.6 1.4 2.9 2.4 3.9 4.3 6.4 11.9 12.9 10.4 10.6 12.1 10.8 10.7 9.4 10.4 10.7 12.7 17.3
0.1 0.2 0.2 0.4 0.5 0.7 1.3 1.1 1.6 2.4 1.7 6.2 8.7 9.9 5.5 8.3 5.9 6.1 5.4 4.5 4.2 4.4 4.3 3.4 3.8 3.8 4.2 3.8 2.5 2.9 3.0 3.4 7.5 9.1 11.8 9.1 8.1 6.6 6.0 7.9 7.7 9.3 12.7
0.1 0.3 0.4 0.7 0.9 1.9 1.6 2.0 2.1 2.0 2.2 2.3 1.2 2.3 2.9 3.3 3.5 8.1 5.0 9.8 6.6 5.6 4.2 4.9 7.5 6.4 6.7 8.4 7.2 5.7 4.7 3.8 4.8 5.5 6.3 6.0 7.0 4.7 3.8 3.5 4.3 7.1 5.8
0.4 1.0 1.1 1.1 1.5 1.6 1.7 1.6 1.4 2.2 1.9 2.0 0.9 0.2 0.1 0.4 0.8 1.0 1.0 2.7 1.9 3.2 5.5 5.4 8.5 9.2 8.8 8.4 8.1 8.6 7.5 6.8 4.2 3.8 4.1 4.0 4.7 2.5 1.7 4.4 9.2 9.5 12.6
1.2 1.5 1.4 1.9 2.0 2.3 2.7 2.7 2.2 1.6 1.3 1.7 3.3 0.2 0.4 1.4 0.9 1.3 1.2 0.3 0.5 1.1 1.6 1.9 3.8 9.1 9.3 7.5 11.9 11.9 11.4 8.6 9.8 9.2 7.6 3.8 3.1 3.8 2.9 4.6 7.7 15.6 14.1
3.6 3.1 1.2 1.3 1.7 1.7 1.7 1.3 0.9 0.9 1.6 3.0 2.7 0.6 1.0 1.3 2.0 2.0 1.1 1.2 5.8 2.2 1.1 1.0 2.1 7.6 7.5 7.0 8.1 13.2 16.7 11.9 10.8 12.5 13.0 11.0 12.8 7.3 6.3 7.1 7.3 10.5 14.3
8.3 9.6 5.8 3.1 4.6 3.2 1.1 1.1 0.8 0.9 1.8 2.5 2.8 2.6 2.8 1.8 1.2 0.6 1.6 1.7 2.8 7.2 7.5 8.0 9.8 7.3 7.0 6.6 8.2 12.0 10.4 10.8 11.8 15.6 16.3 17.7 18.6 17.4 16.1 13.6 11.0 9.9 9.1
10.7 14.1 8.7 9.8 4.6 3.2 0.6 0.5 0.7 0.6 1.1 0.8 1.8 1.5 2.2 2.4 1.9 1.7 1.2 1.0 2.0 6.7 10.0 10.4 6.9 7.8 7.0 10.1 14.8 19.4 17.4 22.2 27.4 28.7 26.7 24.6 18.6 12.8 7.6 6.8 4.9 3.1 4.0
12.8 12.3 12.3 8.7 9.6 9.0 4.1 5.0 2.4 2.3 1.2 1.4 1.1 2.8 1.0 1.2 1.6 1.8 3.6 2.6 3.6 6.8 14.0 20.6 22.7 29.9 28.1 31.2 31.0 30.5 31.3 31.7 30.8 29.2 23.8 16.0 10.4 8.3 8.1 6.3 9.4 7.5 8.4
6.0 4.9 5.5 7.3 8.6 9.5 13.5 17.2 16.5 17.1 6.6 7.9 9.2 5.4 7.6 8.6 7.9 14.2 17.7 13.8 22.7 22.3 20.9 26.8 26.2 23.6 21.5 19.3 17.7 17.1 15.6 12.6 14.9 14.6 13.9 12.2 8.3 7.9 8.3 5.3 6.1 7.9 11.5
2.7 2.5 3.3 3.5 4.9 6.9 10.0 13.1 14.1 18.4 18.1 22.1 18.0 24.2 26.6 22.6 22.4 18.4 19.4 21.1 19.3 20.1 19.5 17.6 16.1 15.4 15.0 15.3 15.4 10.5 8.4 11.1 13.1 15.5 14.6 12.1 12.6 11.9 11.7 9.1 9.2 10.9 11.8
1.6 1.3 3.1 3.2 4.2 7.9 8.8 11.2 15.1 24.2 26.9 30.5 30.2 29.8 29.6 31.5 28.1 30.0 30.4 28.3 26.5 20.7 23.2 19.7 21.0 20.6 21.5 20.5 21.3 19.9 23.8 21.5 18.6 18.8 19.3 20.2 18.6 16.5 17.3 15.3 14.2 11.4 10.9
1.0 5.0 9.9 14.6 17.1 17.2 19.1 22.6 23.4 25.1 25.0 26.8 25.4 23.9 21.7 21.8 21.4 21.7 23.2 22.6 29.4 25.9 24.5 24.9 27.4 29.5 30.7 31.8 30.0 32.0 29.0 23.1 22.8 23.0 21.5 21.0 21.6 21.2 19.4 18.1 18.1 17.2 15.0
7.7 10.0 11.9 11.8 11.4 10.6 9.8 11.7 12.6 13.0 14.7 15.4 14.5 12.9 13.0 11.9 11.2 11.7 11.0 13.4 17.6 19.9 22.5 21.3 23.0 24.3 27.7 30.0 33.6 36.3 40.2 40.6 36.4 32.5 30.9 31.5 29.8 27.6 25.9 24.0 22.3 19.4 16.6
9.0 10.3 8.9 8.5 9.2 9.3 7.8 6.9 7.0 6.2 6.6 6.7 7.5 9.2 7.5 6.0 5.0 6.8 8.4 11.3 12.3 13.0 15.6 17.4 17.9 17.6 18.9 22.5 25.7 28.0 29.8 32.0 33.2 32.8 33.3 30.5 30.8 29.4 31.4 28.8 26.2 26.1 21.4
10.0 9.3 7.6 6.3 6.0 5.6 4.9 4.7 4.5 5.0 5.1 4.1 4.2 3.3 3.6 4.0 4.9 5.5 7.2 8.6 9.1 10.8 12.6 13.3 14.4 14.2 14.5 16.1 15.6 18.1 20.8 24.8 29.2 32.1 32.5 31.0 28.9 32.5 26.6 27.2 25.8 22.3 20.0
6.7 5.9 5.0 5.2 4.2 3.9 3.2 2.7 2.7 3.5 3.2 3.8 4.4 4.0 6.0 5.5 5.1 5.0 5.0 5.7 5.9 6.2 8.7 11.5 12.6 13.9 14.8 16.8 16.5 17.0 16.1 17.2 20.5 27.8 31.0 29.5 27.7 27.0 26.1 25.0 23.6 23.5 20.4
4.0 4.1 3.4 3.6 3.3 2.7 3.1 2.2 3.8 4.1 4.3 3.7 3.9 5.4 5.6 5.6 5.2 5.5 5.6 5.3 4.9 5.6 4.9 8.3 9.2 8.7 9.2 11.7 12.4 16.3 17.8 17.2 18.0 21.7 27.8 26.3 25.6 26.1 24.8 24.5 22.3 23.1 21.2
1.9 2.3 2.5 1.9 2.6 2.1 2.8 3.1 3.4 5.2 6.2 5.3 4.7 4.5 5.5 6.2 6.2 6.4 5.7 5.6 5.4 6.0 7.0 8.0 9.1 10.1 9.9 8.4 9.6 11.1 12.8 14.4 14.6 16.0 20.6 20.6 19.9 21.2 22.3 22.2 21.2 21.2 21.3
1.4 1.9 2.3 2.3 3.0 4.4 4.8 5.0 4.5 2.7 4.1 4.5 4.4 4.4 3.5 4.3 5.3 7.2 7.3 6.8 6.8 8.6 9.4 9.7 9.8 9.8 10.8 11.0 12.5 12.2 11.7 13.2 15.8 17.4 18.1 17.2 15.9 14.4 18.9 21.0 20.0 21.0 21.1
1.6 2.2 2.8 3.1 3.2 4.7 4.9 5.1 4.4 3.0 3.4 3.8 4.3 4.2 4.7 5.0 6.3 7.6 7.9 7.6 8.1 10.3 11.0 11.8 12.4 11.2 10.5 10.7 11.5 12.0 11.9 12.3 13.9 16.9 19.0 17.6 15.6 14.1 14.4 15.7 16.2 19.2 18.6